TimeCST,TemperatureF,Dew PointF,Humidity,Sea Level PressureIn,VisibilityMPH,Wind Direction,Wind SpeedMPH,Gust SpeedMPH,PrecipitationIn,Events,Conditions,WindDirDegrees,DateUTC
12:15 AM,24.8,23.0,93,29.98,10.0,SSW,8.1,-,N/A,,Clear,210,2012-11-17 06:15:00
12:35 AM,24.8,23.0,93,29.99,10.0,SSW,5.8,-,N/A,,Clear,210,2012-11-17 06:35:00
12:55 AM,24.8,23.0,93,29.99,10.0,SSW,5.8,-,N/A,,Clear,200,2012-11-17 06:55:00
1:15 AM,24.8,23.0,93,29.99,10.0,South,4.6,-,N/A,,Clear,190,2012-11-17 07:15:00
1:35 AM,23.0,23.0,100,29.99,10.0,SSW,3.5,-,N/A,,Clear,200,2012-11-17 07:35:00
1:55 AM,21.2,21.2,100,29.99,10.0,South,4.6,-,N/A,,Clear,190,2012-11-17 07:55:00
2:15 AM,21.2,21.2,100,29.99,10.0,South,4.6,-,N/A,,Clear,170,2012-11-17 08:15:00
2:35 AM,19.4,19.4,100,29.99,10.0,South,3.5,-,N/A,,Clear,180,2012-11-17 08:35:00
2:55 AM,19.4,19.4,100,29.99,10.0,South,5.8,-,N/A,,Clear,180,2012-11-17 08:55:00
3:15 AM,17.6,17.6,100,30.00,10.0,South,3.5,-,N/A,,Clear,190,2012-11-17 09:15:00
3:35 AM,19.4,19.4,100,29.99,10.0,Calm,Calm,-,N/A,,Clear,0,2012-11-17 09:35:00
3:55 AM,19.4,19.4,100,30.00,10.0,SSW,4.6,-,N/A,,Clear,200,2012-11-17 09:55:00
4:15 AM,19.4,19.4,100,29.99,10.0,SSW,3.5,-,N/A,,Clear,200,2012-11-17 10:15:00
4:35 AM,17.6,17.6,100,29.99,10.0,South,4.6,-,N/A,,Clear,190,2012-11-17 10:35:00
4:55 AM,17.6,17.6,100,30.00,10.0,SW,5.8,-,N/A,,Clear,220,2012-11-17 10:55:00
5:15 AM,19.4,19.4,100,30.00,10.0,WSW,3.5,-,N/A,,Clear,240,2012-11-17 11:15:00
5:35 AM,17.6,17.6,100,30.00,10.0,Calm,Calm,-,N/A,,Scattered Clouds,0,2012-11-17 11:35:00
5:55 AM,17.6,17.6,100,30.01,5.0,Calm,Calm,-,N/A,,Overcast,0,2012-11-17 11:55:00
6:15 AM,17.6,17.6,100,30.00,8.0,Calm,Calm,-,N/A,,Overcast,0,2012-11-17 12:15:00
6:35 AM,17.6,17.6,100,30.00,2.5,Calm,Calm,-,N/A,,Overcast,0,2012-11-17 12:35:00
6:55 AM,15.8,15.8,100,30.00,0.2,Calm,Calm,-,N/A,Fog,Light Freezing Fog,0,2012-11-17 12:55:00
7:15 AM,17.6,17.6,100,30.01,0.2,Calm,Calm,-,N/A,Fog,Light Freezing Fog,0,2012-11-17 13:15:00
7:35 AM,17.6,17.6,100,30.02,0.8,Calm,Calm,-,N/A,,Overcast,0,2012-11-17 13:35:00
7:55 AM,17.6,17.6,100,30.03,1.2,Calm,Calm,-,N/A,,Overcast,0,2012-11-17 13:55:00
8:15 AM,19.4,19.4,100,30.03,0.2,North,3.5,-,N/A,Fog,Light Freezing Fog,360,2012-11-17 14:15:00
8:35 AM,19.4,19.4,100,30.04,2.0,North,3.5,-,N/A,,Overcast,350,2012-11-17 14:35:00
8:55 AM,19.4,19.4,100,30.04,4.0,Calm,Calm,-,N/A,,Overcast,0,2012-11-17 14:55:00
9:15 AM,23.0,23.0,100,30.04,4.0,Calm,Calm,-,N/A,,Overcast,0,2012-11-17 15:15:00
9:35 AM,23.0,23.0,100,30.05,6.0,Calm,Calm,-,N/A,,Overcast,0,2012-11-17 15:35:00
9:55 AM,23.0,23.0,100,30.06,8.0,Calm,Calm,-,N/A,,Overcast,0,2012-11-17 15:55:00
10:15 AM,24.8,24.8,100,30.07,9.0,Calm,Calm,-,N/A,,Overcast,0,2012-11-17 16:15:00
10:35 AM,24.8,24.8,100,30.07,10.0,Calm,Calm,-,N/A,,Overcast,0,2012-11-17 16:35:00
11:55 AM,28.4,28.4,100,30.05,10.0,North,5.8,-,N/A,,Clear,350,2012-11-17 17:55:00
12:15 PM,28.4,28.4,100,30.04,9.0,North,6.9,-,N/A,,Clear,360,2012-11-17 18:15:00
12:35 PM,30.2,30.2,100,30.04,8.0,NE,4.6,-,N/A,,Scattered Clouds,40,2012-11-17 18:35:00
12:55 PM,32.0,30.2,93,30.03,10.0,NE,3.5,-,N/A,,Mostly Cloudy,50,2012-11-17 18:55:00
1:15 PM,32.0,30.2,93,30.03,9.0,East,4.6,-,N/A,,Partly Cloudy,90,2012-11-17 19:15:00
1:35 PM,32.0,32.0,100,30.03,9.0,ESE,5.8,-,N/A,,Clear,120,2012-11-17 19:35:00
1:55 PM,32.0,32.0,100,30.02,8.0,ESE,6.9,-,N/A,,Clear,120,2012-11-17 19:55:00
2:15 PM,32.0,32.0,100,30.03,8.0,ESE,5.8,-,N/A,,Partly Cloudy,120,2012-11-17 20:15:00
2:35 PM,30.2,30.2,100,30.02,9.0,ESE,5.8,-,N/A,,Mostly Cloudy,110,2012-11-17 20:35:00
2:55 PM,28.4,28.4,100,30.03,6.0,SE,4.6,-,N/A,,Overcast,130,2012-11-17 20:55:00
3:15 PM,28.4,28.4,100,30.02,5.0,ESE,5.8,-,N/A,,Overcast,110,2012-11-17 21:15:00
3:35 PM,30.2,30.2,100,30.03,8.0,ESE,6.9,-,N/A,,Overcast,110,2012-11-17 21:35:00
3:55 PM,30.2,30.2,100,30.03,9.0,East,8.1,-,N/A,,Overcast,90,2012-11-17 21:55:00
4:15 PM,30.2,30.2,100,30.03,9.0,ESE,9.2,-,N/A,,Overcast,110,2012-11-17 22:15:00
4:35 PM,28.4,28.4,100,30.04,7.0,SSE,6.9,-,N/A,,Overcast,150,2012-11-17 22:35:00
4:55 PM,28.4,28.4,100,30.04,7.0,SE,6.9,-,N/A,,Overcast,140,2012-11-17 22:55:00
5:15 PM,28.4,28.4,100,30.04,7.0,SE,6.9,-,N/A,,Overcast,140,2012-11-17 23:15:00
5:35 PM,28.4,28.4,100,30.04,8.0,SSE,5.8,-,N/A,,Overcast,160,2012-11-17 23:35:00
5:55 PM,28.4,28.4,100,30.04,7.0,ESE,6.9,-,N/A,,Overcast,120,2012-11-17 23:55:00
6:15 PM,26.6,26.6,100,30.04,7.0,SE,4.6,-,N/A,,Scattered Clouds,140,2012-11-18 00:15:00
6:35 PM,24.8,24.8,100,30.04,5.0,East,4.6,-,N/A,,Clear,90,2012-11-18 00:35:00
6:55 PM,23.0,23.0,100,30.04,4.0,SE,6.9,-,N/A,,Clear,140,2012-11-18 00:55:00
7:15 PM,23.0,23.0,100,30.04,5.0,SSE,3.5,-,N/A,,Clear,160,2012-11-18 01:15:00
7:35 PM,23.0,23.0,100,30.04,3.0,Calm,Calm,-,N/A,,Clear,0,2012-11-18 01:35:00
7:55 PM,21.2,21.2,100,30.04,1.5,North,3.5,-,N/A,,Clear,360,2012-11-18 01:55:00
8:15 PM,19.4,19.4,100,30.04,5.0,NNE,3.5,-,N/A,,Clear,20,2012-11-18 02:15:00
8:35 PM,23.0,23.0,100,30.03,6.0,Calm,Calm,-,N/A,,Clear,0,2012-11-18 02:35:00
8:55 PM,21.2,21.2,100,30.03,5.0,Calm,Calm,-,N/A,,Clear,0,2012-11-18 02:55:00
9:15 PM,23.0,23.0,100,30.02,3.0,SE,9.2,-,N/A,,Clear,130,2012-11-18 03:15:00
9:35 PM,23.0,23.0,100,30.03,5.0,Calm,Calm,-,N/A,,Clear,0,2012-11-18 03:35:00
9:55 PM,23.0,23.0,100,30.03,5.0,Calm,Calm,-,N/A,,Clear,0,2012-11-18 03:55:00
10:15 PM,23.0,23.0,100,30.02,2.5,SE,5.8,-,N/A,,Clear,130,2012-11-18 04:15:00
10:35 PM,21.2,21.2,100,30.02,1.8,SSE,4.6,-,N/A,,Clear,150,2012-11-18 04:35:00
10:55 PM,19.4,19.4,100,30.01,1.8,ESE,4.6,-,N/A,,Clear,120,2012-11-18 04:55:00
11:15 PM,19.4,19.4,100,30.01,3.0,SE,5.8,-,N/A,,Clear,130,2012-11-18 05:15:00
11:35 PM,17.6,17.6,100,30.00,4.0,SE,6.9,-,N/A,,Clear,130,2012-11-18 05:35:00
11:55 PM,17.6,17.6,100,30.00,1.8,SE,6.9,-,N/A,,Clear,130,2012-11-18 05:55:00